Погода в Березинском

Россия / Челябинская область     53°39′17″N   60°18′15″E
темп.,
°C
ветер,
м/с
пор.,
м/с
влажн.,
%
обл.,
%
осадки,
мм/ч
давл.,
гПа
погр.,
м
13 мая, чт
чт1323:00+17зюз33325 0.0 102726
02:00+15з46395 0.0 102769
05:00+14сз22415 0.0 102715
08:00+18ссз344761 0.0 1027228
11:00+24ссз33345 0.0 10271252
14:00+26ссз33275 0.0 10262351
17:00+27сз33245 0.0 10252542
20:00+23ссз11345 0.0 102511
14 мая, пт
пт1423:00+19юв11425 0.0 102611
02:00+18ю114321 0.0 102611
05:00+16юз11465 0.0 102711
08:00+21ююз22375 0.0 1027211
11:00+26ююз33280 0.0 10271279
14:00+28юз33235 0.0 10262739
17:00+28юз44225 0.0 10252845
20:00+24юз34310 0.0 102542
15 мая, сб
сб1523:00+20юз45332 0.0 102553
02:00+18зсз33465 0.0 102523
05:00+16с33501 0.0 102632
08:00+21с23380 0.0 1026209
11:00+26ссз22280 0.0 10251012
14:00+29з33225 0.0 10232812
17:00+29з33215 0.0 10223266
20:00+24зсз59359 0.0 1022223
16 мая, вс
вс1623:00+18св366399 0.0 1023113
02:00+18зсз226031 0.0 102312
05:00+16зсз22585 0.0 102417
08:00+22сз22445 0.0 1024184
11:00+27всв11315 0.0 10231407
14:00+30ю11243 0.0 10212966
17:00+30ююз322217 0.0 10203299
20:00+26ююз333217 0.0 102035
17 мая, пн
пн1723:00+21ссв36477 0.0 102095
02:00+19сз33530 0.0 102025
05:00+18сз22534 0.0 102111
08:00+23сз33415 0.0 1021241
11:00+28сз33265 0.0 10192027
14:00+29зсз342079 0.0 10183718
17:00+29сз642337 0.0 10173098
20:00+23ссз494340 0.0 1017253